Date,TemperatureHighF,TemperatureAvgF,TemperatureLowF,DewpointHighF,DewpointAvgF,DewpointLowF,HumidityHigh,HumidityAvg,HumidityLow,PressureMaxIn,PressureMinIn,WindSpeedMaxMPH,WindSpeedAvgMPH,GustSpeedMaxMPH,PrecipitationSumIn
2013-3-1,36,27,15,26,21,12,96,79,54,30.15,29.98,8,1,8,0.07
2013-3-2,35,17,5,23,12,3,94,80,56,30.17,30.07,5,0,5,0.00
2013-3-3,34,19,1,20,12,-2,92,75,45,30.08,29.90,10,2,10,0.00
2013-3-4,32,27,23,27,24,17,95,86,71,29.93,29.75,21,7,22,0.01
2013-3-5,34,29,24,30,26,22,97,89,78,30.06,29.78,13,1,13,0.19
2013-3-6,35,21,3,24,17,0,93,84,62,30.24,30.06,9,1,9,0.02
2013-3-7,32,16,-2,25,13,-5,94,86,74,30.30,30.22,10,2,10,0.04
2013-3-8,42,30,17,33,26,15,95,85,69,30.26,30.04,17,5,17,0.01
2013-3-9,40,37,34,40,36,32,100,96,89,30.04,29.55,17,5,17,1.17
2013-3-10,40,37,34,40,37,34,100,100,99,29.59,29.39,7,0,7,0.65
2013-3-11,34,32,27,34,30,24,100,95,86,29.75,29.47,12,1,12,0.00
2013-3-12,38,28,23,31,24,19,92,86,71,30.02,29.75,14,3,15,0.00
2013-3-13,38,27,18,25,20,15,91,75,52,30.26,30.02,11,1,11,0.01
2013-3-14,51,34,20,36,27,18,96,78,53,30.21,29.92,17,2,18,0.00
2013-3-15,46,35,27,40,33,26,99,92,78,29.92,29.59,12,1,12,0.00
2013-3-16,36,32,26,34,30,22,99,90,82,30.04,29.62,14,1,15,0.00
2013-3-17,37,30,23,28,23,18,88,78,63,30.06,29.77,17,5,17,0.00
2013-3-18,34,27,17,32,24,11,97,88,77,29.78,29.53,23,5,23,0.02
2013-3-19,32,22,13,22,15,8,87,76,61,30.06,29.76,17,4,18,0.04
2013-3-20,28,19,11,17,11,6,81,72,59,30.11,29.99,14,2,16,0.01
2013-3-21,37,21,6,23,14,4,93,74,48,30.01,29.89,6,0,7,0.00
2013-3-22,45,29,13,27,20,12,96,74,41,29.95,29.88,5,0,6,0.00
2013-3-23,47,34,22,30,26,21,97,74,44,29.98,29.87,7,0,8,0.00
2013-3-24,33,30,28,31,29,27,97,94,87,29.91,29.67,10,1,10,0.08
2013-3-25,40,32,28,32,27,23,96,83,69,30.05,29.75,14,2,14,0.05
2013-3-26,46,33,26,35,28,24,94,82,57,30.17,30.05,10,1,10,0.00
2013-3-27,50,35,23,35,27,22,99,76,43,30.22,30.14,7,0,7,0.00
2013-3-28,55,38,23,38,30,22,98,77,49,30.22,30.11,9,1,9,0.00
2013-3-29,60,43,26,42,34,26,99,74,41,30.16,30.03,10,1,10,0.00
2013-3-30,52,45,38,47,40,32,99,84,72,30.03,29.71,15,3,16,0.04
2013-3-31,54,40,31,45,35,24,100,83,55,29.88,29.69,14,2,16,0.00